User: anonymous   Login
Location: Caltech
(34.1382°N, 118.1253°W)
Time: 03:40:20
(UTC-07:00)
Language:

Oscar 10/S400 - Orbit

View from above orbital plane
View from above orbital plane
View from above satellite
View from above satellite

Ground track
Ground track

The orbit data is extracted from the following two-line orbital elements,

1 14129U 83058B   17087.54713307 +.00000036 +00000-0 +00000-0 0  9993
2 14129 026.9321 047.2028 6022551 283.9882 215.7113 02.05867154226161
Epoch (UTC): 28 March 2017 13:07:52
Eccentricity: 0.6022551
inclination: 26.9321°
perigee height: 4004 km
apogee height: 35444 km
right ascension of ascending node: 47.2028°
argument of perigee: 283.9882°
revolutions per day: 2.05867154
mean anomaly at epoch: 215.7113°
orbit number at epoch: 22616

The dashed part of the orbit path shows where the satellite is in the earth's shadow,  

DLR